Find Starlink 31946

NORAD ID: 59940 Int'l Des: 2024-106 Owner: SPXS Country: US Constellation: starlink operational
LEOCIRCULAR

Live Position

Loading 3D Globe...

About Starlink 31946

Description loading...

Upcoming Passes

Passes for default location (London). Set your location on the main map for personalized predictions.

Altitude History

Loading altitude history...

Two-Line Element Set

1 59940U 24106U 26124.43386038 .00003029 00000-0 11956-3 0 9999
2 59940 43.0045 18.0946 0001183 280.8577 79.2142 15.27582104 99674
Epoch: May 4, 2026 • Age: 7 hours

Current Status

Altitude 494.9 km
Velocity 7.62 km/s
Sub-Earth Point -41.20°S, 135.75°E
Launch Date Jun 1, 2024
Age 1.9 years
Type internet

Technical Details

Classification Payload
Mass 730.00 kg
Dry Mass 700.00 kg
Total Mass 730.00 kg
Length 0.30 m
Diameter 4.10 m
Span 29.00 m
Shape Box + pan
Manufacturer SPXS
Bus Type Starlink V2M
Phase Status In Orbit
Owner/State SPXS/US

Most Searched